TimeCST,TemperatureF,Dew PointF,Humidity,Sea Level PressureIn,VisibilityMPH,Wind Direction,Wind SpeedMPH,Gust SpeedMPH,PrecipitationIn,Events,Conditions,WindDirDegrees,DateUTC
12:53 AM,55.9,46.0,69,30.14,10.0,ESE,3.5,-,N/A,,Clear,110,2013-03-09 06:53:00
1:53 AM,54.0,46.0,75,30.11,9.0,ESE,4.6,-,N/A,,Clear,110,2013-03-09 07:53:00
2:53 AM,55.0,45.0,69,30.11,10.0,Calm,Calm,-,N/A,,Clear,0,2013-03-09 08:53:00
3:53 AM,51.1,45.0,80,30.10,10.0,Calm,Calm,-,N/A,,Clear,0,2013-03-09 09:53:00
4:53 AM,52.0,46.0,80,30.11,10.0,Calm,Calm,-,N/A,,Clear,0,2013-03-09 10:53:00
5:53 AM,48.0,45.0,89,30.12,8.0,ENE,5.8,-,N/A,,Clear,70,2013-03-09 11:53:00
6:53 AM,50.0,46.9,89,30.14,6.0,ENE,3.5,-,N/A,,Scattered Clouds,70,2013-03-09 12:53:00
7:14 AM,51.8,48.2,88,30.15,5.0,NE,3.5,-,N/A,,Mostly Cloudy,50,2013-03-09 13:14:00
7:42 AM,53.6,50.0,88,30.14,5.0,East,6.9,-,N/A,,Scattered Clouds,80,2013-03-09 13:42:00
7:53 AM,55.0,51.1,86,30.14,5.0,East,5.8,-,N/A,,Partly Cloudy,80,2013-03-09 13:53:00
8:49 AM,60.8,51.8,72,30.16,10.0,SE,5.8,-,N/A,,Mostly Cloudy,130,2013-03-09 14:49:00
8:53 AM,60.1,52.0,75,30.16,10.0,ESE,8.1,-,N/A,,Mostly Cloudy,120,2013-03-09 14:53:00
9:43 AM,64.4,53.6,68,30.15,10.0,ESE,10.4,-,N/A,,Mostly Cloudy,120,2013-03-09 15:43:00
9:53 AM,64.9,54.0,68,30.15,10.0,SE,10.4,-,N/A,,Mostly Cloudy,130,2013-03-09 15:53:00
10:53 AM,64.9,54.0,68,30.13,10.0,ESE,10.4,-,N/A,,Clear,120,2013-03-09 16:53:00
11:53 AM,66.0,55.0,68,30.12,10.0,SE,9.2,-,N/A,,Partly Cloudy,140,2013-03-09 17:53:00
12:53 PM,68.0,55.9,65,30.08,10.0,ESE,10.4,-,N/A,,Partly Cloudy,110,2013-03-09 18:53:00
1:53 PM,70.0,55.9,61,30.05,10.0,SE,11.5,17.3,N/A,,Mostly Cloudy,130,2013-03-09 19:53:00
2:53 PM,69.1,57.0,65,30.04,10.0,SE,10.4,-,N/A,,Mostly Cloudy,130,2013-03-09 20:53:00
3:53 PM,68.0,57.0,68,30.02,10.0,ESE,12.7,-,N/A,,Mostly Cloudy,110,2013-03-09 21:53:00
4:53 PM,64.9,55.9,73,29.99,10.0,ESE,13.8,20.7,N/A,,Clear,120,2013-03-09 22:53:00
5:53 PM,64.0,55.9,75,29.99,10.0,ESE,11.5,-,N/A,,Partly Cloudy,120,2013-03-09 23:53:00
6:53 PM,63.0,55.9,78,29.99,10.0,ESE,11.5,-,N/A,,Partly Cloudy,110,2013-03-10 00:53:00
7:53 PM,63.0,55.9,78,29.97,10.0,ESE,13.8,20.7,N/A,,Clear,110,2013-03-10 01:53:00
8:53 PM,63.0,55.9,78,29.96,10.0,ESE,10.4,-,N/A,,Clear,120,2013-03-10 02:53:00
9:53 PM,62.1,57.0,84,29.96,10.0,SE,9.2,-,N/A,,Mostly Cloudy,130,2013-03-10 03:53:00
10:53 PM,62.1,57.9,86,29.95,10.0,East,6.9,-,N/A,,Mostly Cloudy,100,2013-03-10 04:53:00
11:08 PM,62.6,57.2,82,29.94,10.0,East,6.9,-,N/A,,Mostly Cloudy,100,2013-03-10 05:08:00
11:53 PM,62.1,57.9,86,29.94,10.0,East,6.9,-,N/A,,Overcast,100,2013-03-10 05:53:00